www.pogodaiklimat.ru

Погода и климат >> Архив погоды >> Саудовская Аравия >> Madinah


ПОГОДА в Madinah

  • Прогноз погоды в Madinah
  • Монитор погоды в Madinah
  • Климат города

АРХИВ ПОГОДЫ в Madinah

Время (UTC), дата Ветер
(напр.,м/с)
 
Видим.   Явления Облачность Т
(С)
Тd
(С)
f
(%)
Тe
(С)
Тes
(С)
Комфортность P
(гПа)
Po
(гПа)
Тmin
(С)
Tmax
(С)
R
(мм)
R24
(мм)
S
(см)
00 16.10 СВ 2 10 км ясно +27.8 -1.0 15 +25 +25 комфорт 1007.3 939.0
03 16.10 штиль 0 10 км ясно +24.4 -1.0 19 +23 +23 комфорт 1009.2 940.3
06 16.10 штиль 0 10 км ясно +30.8 0.0 14 +28 +35 жарко 1010.2 941.7 +24.0
09 16.10 штиль 0 10 км ясно +35.9 -1.0 10 +32 +52 опасность
солнечного
удара
1008.5 940.2
12 16.10 ЮВ 3 10 км ясно +36.5 -6.0 6 +32 +39 жарко 1006.4 938.0
15 16.10 З 3 10 км ясно +36.3 -8.0 6 +32 +32 жарко 1006.2 937.5
18 16.10 З 5 10 км ясно +33.9 -2.0 10 +30 +30 жарко 1007.4 939.0 +37.0
21 16.10 СЗ 1 7000 м пыль ясно +29.3 -1.0 14 +26 +26 жарко 1007.4 939.1
00 17.10 штиль 0 8000 м пыль ясно +27.0 +1.0 18 +25 +25 комфорт 1007.0 938.5
03 17.10 штиль 0 10 км ясно +24.8 +2.0 23 +24 +24 комфорт 1007.9 939.1
06 17.10 штиль 0 8000 м пыль ясно +28.8 +4.0 21 +27 +34 жарко 1009.4 940.7 +23.9
09 17.10 ЮЗ 2 10 км ясно +33.0 -1.0 11 +29 +45 жарко 1008.0 939.3
12 17.10 В 2 10 км ясно +35.8 -3.0 8 +32 +40 жарко 1005.2 936.8
15 17.10 З 7 10 км ясно +34.7 -4.0 8 +31 +31 жарко 1005.7 936.9
18 17.10 З 7 10 км ясно +32.0 -4.0 10 +28 +28 жарко 1007.2 938.4 +37.0
21 17.10 штиль 0 10 км ясно +28.5 -2.0 14 +26 +26 жарко 1007.4 938.7
00 18.10 В 3 10 км ясно +26.0 -4.0 14 +24 +24 комфорт 1007.3 938.6
03 18.10 штиль 0 10 км ясно +22.8 -3.0 18 +21 +21 комфорт 1008.9 939.6
06 18.10 штиль 0 10 км ясно +28.2 -4.0 12 +25 +32 комфорт 1010.4 941.3 +22.8
09 18.10 штиль 0 10 км ясно +32.9 -5.0 8 +29 +48 жарко 1008.9 940.1
12 18.10 В 3 10 км ясно +34.8 -6.0 7 +31 +37 жарко 1006.8 938.0
15 18.10 С 5 10 км ясно +34.7 -7.0 7 +30 +30 жарко 1006.9 937.8
18 18.10 З 5 10 км ясно +32.8 -4.0 9 +29 +29 жарко 1008.3 939.5 +35.4
21 18.10 СВ 3 10 км ясно +27.6 -6.0 11 +25 +25 комфорт 1008.8 939.9
00 19.10 ЮВ 3 10 км ясно +23.6 -6.0 13 +22 +22 комфорт 1009.3 940.1
03 19.10 С 2 10 км ясно +22.1 -6.0 15 +21 +21 комфорт 1010.3 940.9
06 19.10 СВ 3 10 км ясно +27.9 -7.0 10 +25 +29 комфорт 1011.9 942.8 +22.1
09 19.10 штиль 0 10 км ясно +34.0 -12.0 5 +29 +49 жарко 1010.4 941.5
12 19.10 Ю 3 10 км ясно +37.1 -13.0 4 +32 +39 жарко 1007.7 939.4
15 19.10 ЮВ 3 10 км ясно +35.7 -14.0 4 +31 +31 жарко 1008.2 939.3
18 19.10 штиль 0 10 км ясно +30.3 -13.0 5 +26 +26 жарко 1010.5 940.6 +37.2
21 19.10 В 3 10 км ясно +28.5 -11.0 7 +25 +25 комфорт 1009.6 940.8
00 20.10 СЗ 3 10 км ясно +24.4 -10.0 9 +22 +22 комфорт 1009.7 940.8
03 20.10 штиль 0 10 км ясно +23.8 -10.0 10 +21 +21 комфорт 1010.5 941.3
06 20.10 В 4 10 км ясно +27.7 -11.0 7 +24 +28 комфорт 1012.3 942.8 +23.2
09 20.10 В 4 10 км ясно +35.0 -9.0 6 +31 +41 жарко 1010.4 941.7
12 20.10 З 4 10 км ясно +37.8 -13.0 3 +33 +39 жарко 1008.0 939.3
15 20.10 СЗ 3 10 км ясно +35.5 -12.0 4 +31 +31 жарко 1008.3 939.3
18 20.10 З 3 10 км ясно +33.2 -8.0 7 +29 +29 жарко 1009.8 940.8 +37.4
21 20.10 СЗ 3 10 км ясно +29.2 -5.0 10 +26 +26 жарко 1009.8 941.2
00 21.10 штиль 0 10 км ясно +25.4 -7.0 11 +23 +23 комфорт 1009.4 940.7
03 21.10 штиль 0 10 км ясно +22.7 -7.0 13 +21 +21 комфорт 1010.9 941.7
06 21.10 штиль 0 10 км ясно +28.0 -5.0 11 +25 +32 комфорт 1011.4 942.4 +22.7
09 21.10 штиль 0 10 км ясно +34.3 -5.0 8 +30 +49 жарко 1009.8 941.1
12 21.10 З 4 10 км ясно +35.7 -6.0 7 +31 +37 жарко 1007.7 938.9
15 21.10 СЗ 2 10 км ясно +35.0 -7.0 6 +31 +31 жарко 1007.7 938.5
18 21.10 З 5 10 км ясно +33.5 -6.0 8 +29 +29 жарко 1008.4 939.6 +35.9
21 21.10 штиль 0 10 км ясно +28.8 -3.0 12 +26 +26 жарко 1008.5 939.9
00 22.10 штиль 0 10 км ясно +25.0 -5.0 13 +23 +23 комфорт 1008.3 939.4
03 22.10 штиль 0 10 км ясно +23.4 -5.0 15 +21 +21 комфорт 1009.1 940.0
06 22.10 штиль 0 10 км ясно +28.3 -5.0 11 +25 +32 комфорт 1010.4 941.5 +22.5
09 22.10 штиль 0 10 км ясно +33.7 -5.0 8 +30 +48 жарко 1009.3 940.5
12 22.10 ЮЗ 3 10 км ясно +35.2 -5.0 7 +31 +37 жарко 1006.6 937.8
15 22.10 З 4 10 км ясно +34.8 -4.0 8 +31 +31 жарко 1006.3 937.3
18 22.10 З 3 10 км ясно +32.8 0.0 12 +29 +29 жарко 1007.4 938.6 +35.7

 

Местоположение метеостанции Madinah (Саудовская Аравия): широта 24.55 долгота 39.70 высота над уровнем моря 636 м.

В архиве по умолчанию представлена погода в Madinah за последнюю неделю. Архивные данные за месяц целиком и за предыдущие месяцы, начиная с января 2011 года, Вы можете получить, выбрав интересующий диапазон дат из раскрывающегося списка и нажав кнопку "Ввод!".

Внимание! Время в таблицах - всемирное. Для получения местного времени необходимо прибавить поправку, которая в Madinah равна 3 ч.

Смотрите также архив погоды в соседних городах и на ближайших метеорологических станциях:

Погода в Yanbu (Саудовская Аравия) (172 км)
Погода в Alula (Саудовская Аравия) (267 км)
Погода в Jeddah King Abdul Aziz (Саудовская Аравия) (321 км)
Погода в Makkah (Саудовская Аравия) (347 км)
Погода в Mina (Саудовская Аравия) (349 км)
Погода в Al Taif (Саудовская Аравия) (352 км)
Погода в Arafat (Саудовская Аравия) (359 км)
Погода в Al-Wajh (Саудовская Аравия) (372 км)
Погода в Hail (Саудовская Аравия) (377 км)
Погода в Shalatin (Египет) (448 км)

Пояснения к столбцам:

Ветер - указаны скорость ветра в м/с - средняя за 10 мин, порывы в срок и между сроками (в фигурных скобках) и направление, откуда дует ветер: С - северный, СВ - северо-восточный, В - восточный, ЮВ - юго-восточный, Ю - южный, ЮЗ - юго-западный, З - западный, СЗ - северо-западный.
Видимость - горизонтальная дальность видимости в метрах или километрах. При видимости от 1 до 10 км при отсутствии осадков обычно наблюдается дымка, при ухудшении видимости до 1 км и менее - туман. В сухую погоду видимость может ухудшаться дымом, пылью или мглою.
Явления - указаны атмосферные явления, наблюдавшиеся в срок или в последний час перед сроком; фигурными скобками обозначены явления, наблюдавшиеся между сроками (за 1-3 часа до срока); квадратными скобками обозначены град или гололедные отложения с указанием их диаметра в мм.
Облачность - указаны через наклонную черту общая и нижняя облачность в баллах и высота нижней границы облаков в метрах; квадратными скобками обозначены формы облаков: Ci - перистые, Cs - перисто-слоистые, Cc - перисто-кучевые, Ac - высококучевые, As - высокослоистые, Sc - слоисто-кучевые, Ns - слоисто-дождевые, Cu - кучевые, Cb - кучево-дождевые. Подробнее классификацию облаков см. в Атласе облаков (PDF).
T - Температура воздуха - температура, измеренная на высоте 2 м над землей.
Td - Температура точки росы - температура, при понижении до которой содержащийся в воздухе водяной пар достигнет насыщения.
f - Относительная влажность воздуха - влажноcть воздуха, измеренная на высоте 2 м над землей.
Te - Эффективная температура - температура, которую ощущает одетый по сезону человек в тени. Характеристика душности погоды. При расчете учитывается влияние влажности воздуха и скорости ветра на теплоощущения человека.
Tes - Эффективная температура на солнце - температура, которую ощущает человек, с поправкой на солнечный нагрев. Характеристика знойности погоды. Зависит от высоты солнца над горизонтом, облачности и скорости ветра. Ночью, в пасмурную погоду, а также при ветре 12 м/с и более поправка равна нулю.
P - Атмосферное давление - приведенное к уровню моря атмосферное давление.
Po - Атмосферное давление - измеренное на уровне метеостанции атмосферное давление.
Tmin - Минимальная температура - минимум температуры воздуха на высоте 2 м над землей.
Tmax - Максимальная температура - максимум температуры воздуха на высоте 2 м над землей.
R - Количество осадков - Количество выпавших осадков за период времени, мм. При наведении курсора мыши на число - период времени, за который выпало указанное количество осадков.
R24 - Количество осадков - Количество выпавших осадков за 24 часа, мм.
S - Снежный покров - Высота снежного покрова, см. При наведении курсора мыши на число - состояние снежного покрова и степень покрытия местности в баллах.